Location: Aydie
(43.5695°N, 0.1043°W)
Time: 05:25:05
(UTC+00:00)

IRS-1C - Pass Details

Date: 17 November 2025
Orbit: 813 x 814 km, 99.0° (Epoch: 04 December)

Event Time Altitude Azimuth Distance (km) Brightness Sun altitude
Rises 17:35:27 0° 166° (SSE) 3,324 7.3 -11.3°
Reaches altitude 10° 17:37:47 10° 167° (SSE) 2,396 6.6 -11.7°
Maximum altitude 17:43:06 84° 256° (WSW) 825 4.2 -12.7°
Drops below altitude 10° 17:48:27 10° 344° (NNW) 2,412 6.6 -13.6°
Sets 17:50:48 0° 346° (NNW) 3,348 7.3 -14.0°
